Location: Seattle
(47.6064°N, 122.3308°W)
Time: 14:31:34
(UTC-08:00)

SR - Pass Details

Date: 27 November 2020
Orbit: 575 x 880 km, 66.7° (Epoch: 23 January)

Event Time Altitude Azimuth Distance (km) Brightness Sun altitude
Rises 19:47:00 0° 235° (SW) 2,816 ? -33.9°
Reaches altitude 10° 19:49:16 10° 243° (WSW) 1,945 ? -34.3°
Enters shadow 19:50:42 19° 253° (WSW) 1,448 ? -34.6°
